This demonstration page uses our WeatherBlox Daily Observations layout. Learn more.

40.92945, -100.16068

Hourly Observations for March 23, 2015

Temp ( °F °C ) Dew Point ( °F °C ) Humidity (%) Winds ( mph kmh ) Pressure ( in mb ) Visibility ( mi km ) Precip ( " mm )
12:15 am 00:15 Clear 35 1.9 21 -5.9 57 57 NW 3 6 30.18 1022 10 16.0934 N/A
12:35 am 00:35 Clear 35 1.9 21 -6 56 56 W 5 7 30.21 1023 10 16.0934 N/A
12:55 am 00:55 Clear 32 0.2 21 -6 63 63 NNW 5 7 30.21 1023 10 16.0934 N/A
1:15 am 01:15 Clear 32 -0.1 22 -5.8 66 66 WNW 9 15 30.24 1024 10 16.0934 N/A
1:35 am 01:35 Clear 31 -0.7 21 -6 68 68 NW 8 13 30.24 1024 10 16.0934 N/A
1:55 am 01:55 Clear 31 -0.4 22 -5.7 68 68 NW 6 9 30.24 1024 10 16.0934 N/A
2:15 am 02:15 Clear 32 0 21 -6 64 64 NW 5 7 30.24 1024 10 16.0934 N/A
2:35 am 02:35 Clear 29 -1.8 20 -6.7 70 70 NNW 7 11 30.27 1025 10 16.0934 N/A
2:55 am 02:55 Clear 28 -2.4 20 -6.9 72 72 NW 5 7 30.27 1025 10 16.0934 N/A
3:15 am 03:15 Clear 28 -2 21 -6.2 73 73 WNW 7 11 30.27 1025 10 16.0934 N/A
3:35 am 03:35 Clear 30 -1.1 22 -5.5 72 72 W 5 7 30.24 1024 10 16.0934 N/A
3:55 am 03:55 Clear 30 -0.9 22 -5.3 72 72 WNW 6 9 30.24 1024 10 16.0934 N/A
4:15 am 04:15 Clear 31 -0.3 22 -5.6 68 68 WNW 6 9 30.24 1024 10 16.0934 N/A
4:35 am 04:35 Clear 31 -0.6 22 -5.3 71 71 NNW 6 9 30.24 1024 10 16.0934 N/A
4:55 am 04:55 Clear 30 -1.1 22 -5.4 73 73 NNW 7 11 30.24 1024 10 16.0934 N/A
5:15 am 05:15 Clear 30 -1.1 23 -5.2 74 74 NNW 8 13 30.24 1024 10 16.0934 N/A
5:35 am 05:35 Clear 30 -1 23 -5.1 74 74 NNW 8 13 30.24 1024 10 16.0934 N/A
5:55 am 05:55 Clear 30 -1 23 -5.2 73 73 NNW 3 6 30.24 1024 10 16.0934 N/A
6:15 am 06:15 Clear 29 -1.6 22 -5.6 74 74 NNW 7 11 30.27 1025 10 16.0934 N/A
6:35 am 06:35 Clear 29 -1.8 22 -5.7 75 75 N 6 9 30.27 1025 10 16.0934 N/A
6:55 am 06:55 Clear 27 -2.6 21 -6.1 77 77 N 3 6 30.24 1024 10 16.0934 N/A
7:15 am 07:15 Clear 27 -2.6 21 -6.2 77 77 NNE 3 6 30.24 1024 10 16.0934 N/A
7:35 am 07:35 Clear 28 -2.5 21 -6.1 77 77 NNE 6 9 30.24 1024 7 11.26538 N/A
7:55 am 07:55 Sunny 26 -3.1 21 -6.2 79 79 NE 6 9 30.24 1024 7 11.26538 N/A
8:15 am 08:15 Sunny 28 -2.3 21 -5.9 77 77 Calm 30.24 1024 10 16.0934 N/A
8:35 am 08:35 Sunny 29 -1.9 22 -5.5 77 77 Calm 30.24 1024 10 16.0934 N/A
8:55 am 08:55 Sunny 32 0.2 23 -4.9 69 69 Calm 30.21 1023 10 16.0934 N/A
9:15 am 09:15 Sunny 35 1.4 22 -5.3 61 61 NE 6 9 30.21 1023 10 16.0934 N/A
9:35 am 09:35 Sunny 37 2.8 23 -5.1 56 56 ENE 6 9 30.18 1022 10 16.0934 N/A
9:55 am 09:55 Sunny 39 4.1 23 -5 52 52 E 7 11 30.18 1022 10 16.0934 N/A
10:15 am 10:15 Sunny 41 5.2 23 -5 48 48 E 7 11 30.15 1021 10 16.0934 N/A
10:35 am 10:35 Sunny 42 5.6 23 -4.8 47 47 ESE 5 7 30.18 1022 10 16.0934 N/A
10:55 am 10:55 Mostly Cloudy 42 5.7 24 -4.6 48 48 SSE 5 7 30.18 1022 10 16.0934 N/A
11:55 am 11:55 Sunny 46 8 26 -3.6 44 44 SSE 7 11 30.12 1020 10 16.0934 N/A
12:35 pm 12:35 Sunny 48 9.1 26 -3.1 42 42 E 3 6 30.12 1020 10 16.0934 N/A
12:55 pm 12:55 Sunny 49 9.7 27 -2.7 42 42 Calm 30.12 1020 10 16.0934 N/A
1:15 pm 13:15 Partly Cloudy 50 10 26 -3.3 39 39 SE 5 7 30.09 1019 10 16.0934 N/A
1:35 pm 13:35 Partly Cloudy 52 11.1 26 -3.5 36 36 SSE 8 13 30.06 1018 10 16.0934 N/A
1:55 pm 13:55 Sunny 52 11.3 26 -3.2 36 36 ESE 7 11 30.06 1018 10 16.0934 N/A
2:15 pm 14:15 Sunny 54 12.2 27 -3 35 35 SSE 7 11 30.03 1017 10 16.0934 N/A
2:35 pm 14:35 Sunny 56 13.1 26 -3.3 32 32 ESE 10 17 30.03 1017 10 16.0934 N/A
2:55 pm 14:55 Sunny 57 13.8 26 -3.2 31 31 SE 10 17 30 1016 10 16.0934 N/A
3:15 pm 15:15 Sunny 57 14 26 -3.1 31 31 SE 12 19 30 1016 10 16.0934 N/A
3:35 pm 15:35 Sunny 59 15 26 -3.1 29 29 SE 9 15 30 1016 10 16.0934 N/A
3:55 pm 15:55 Sunny 59 14.8 25 -3.8 28 28 SE 12 19 29.97 1015 10 16.0934 N/A
4:15 pm 16:15 Sunny 59 15.2 26 -3.3 28 28 ESE 12 19 29.97 1015 10 16.0934 N/A
4:35 pm 16:35 Sunny 60 15.5 25 -3.7 27 27 SE 13 20 29.97 1015 10 16.0934 N/A
4:55 pm 16:55 Sunny 60 15.8 25 -4.1 25 25 SE 15 24 29.94 1014 10 16.0934 N/A
5:15 pm 17:15 Sunny 61 16 25 -3.8 26 26 SE 12 19 29.94 1014 10 16.0934 N/A
5:35 pm 17:35 Sunny 60 15.6 25 -3.8 26 26 SE 14 22 29.94 1014 10 16.0934 N/A
5:55 pm 17:55 Sunny 60 15.8 26 -3.3 27 27 ESE 15 24 29.88 1012 10 16.0934 N/A
6:15 pm 18:15 Sunny 60 15.4 25 -3.9 26 26 ESE 16 26 29.91 1013 10 16.0934 N/A
6:35 pm 18:35 Sunny 58 14.4 25 -3.9 28 28 ESE 17 28 29.91 1013 10 16.0934 N/A
6:55 pm 18:55 Sunny 57 14 26 -3.6 30 30 ESE 16 26 29.91 1013 10 16.0934 N/A
7:15 pm 19:15 Sunny 55 12.7 24 -4.2 31 31 ESE 16 26 29.91 1013 10 16.0934 N/A
7:35 pm 19:35 Partly Cloudy 53 11.6 25 -3.8 34 34 ESE 17 28 29.94 1014 10 16.0934 N/A
7:55 pm 19:55 Partly Cloudy 51 10.6 27 -3 39 39 ESE 10 17 29.97 1015 10 16.0934 N/A
8:15 pm 20:15 Mostly Cloudy 51 10.4 28 -2.3 41 41 ESE 12 19 29.97 1015 10 16.0934 N/A
8:35 pm 20:35 Cloudy 49 9.6 29 -1.6 46 46 ESE 14 22 29.97 1015 10 16.0934 N/A
8:55 pm 20:55 Mostly Cloudy 47 8.6 30 -1 51 51 ESE 16 26 30 1016 10 16.0934 N/A
9:15 pm 21:15 Partly Cloudy 47 8.1 31 -0.7 54 54 ESE 10 17 30 1016 10 16.0934 N/A
9:35 pm 21:35 Clear 45 7.2 31 -0.7 58 58 ESE 13 20 30 1016 10 16.0934 N/A
9:55 pm 21:55 Clear 45 7 31 -0.6 59 59 E 12 19 30 1016 10 16.0934 N/A
10:15 pm 22:15 Clear 42 5.3 30 -0.9 65 65 E 8 13 30.03 1017 10 16.0934 N/A
10:35 pm 22:35 Clear 41 5.2 31 -0.8 66 66 E 9 15 30.03 1017 10 16.0934 N/A
10:55 pm 22:55 Clear 41 5.1 31 -0.8 66 66 ESE 9 15 30.03 1017 10 16.0934 N/A
11:15 pm 23:15 Clear 41 4.8 30 -0.9 67 67 E 8 13 30.03 1017 10 16.0934 N/A
11:35 pm 23:35 Partly Cloudy 39 4 30 -1 70 70 E 7 11 30 1016 10 16.0934 N/A
11:55 pm 23:55 Mostly Cloudy 40 4.7 31 -0.7 68 68 ENE 6 9 30.03 1017 10 16.0934 N/A

Powered by AerisWeather